Regional Weather Roundup
Issued by NWS

Home | Current Version | Previous Version | Graphics & Text | Print | Product List | Glossary On
Versions: 1 2 3 4 5 6 7 8 9 10 11 12 13 14 15 16 17 18 19 20 21 22 23 24 25 26 27 28 29 30 31 32 33 34 35 36 37 38 39 40 41 42 43 44 45 46 47 48 49 50
000
ASUS43 KMPX 280910
RWRMN
WEATHER ROUNDUP FOR MINNESOTA
NATIONAL WEATHER SERVICE TWIN CITIES/CHANHASSEN MN
400 AM CDT WED SEP 28 2016


NOTE: "FAIR" INDICATES FEW OR NO CLOUDS BELOW 12,000 FEET WITH NO
SIGNIFICANT WEATHER AND/OR OBSTRUCTIONS TO VISIBILITY. N/A MEANS
CURRENT SKY AND/OR WEATHER CONDITIONS ARE NOT AVAILABLE.

MNZ060>063-068>070-281000-
   Twin Cities Metro

CITY           SKY/WX    TMP DP  RH WIND       PRES   REMARKS
TWIN CITIES    CLOUDY    51  46  83 N13       29.97R
ST PAUL        CLOUDY    51  46  83 N10       29.98R
CRYSTAL        CLOUDY    50  45  83 NW9       29.97R
BLAINE         MOCLDY    52  48  87 NW8       29.97R
LAKEVILLE      CLOUDY    48  46  93 N9        29.96R
EDEN PRAIRIE   CLOUDY    50  46  86 N7        29.97R
LAKEVILLE      CLOUDY    48  46  93 N9        29.96R
SOUTH ST PAUL  CLOUDY    51  46  83 N9        29.96R
LAKE ELMO      CLOUDY    50  46  87 N9        29.97R
$$
MNZ001>005-007-008-013>017-022>024-027-028-281000-
   Northwest Minnesota

CITY           SKY/WX    TMP DP  RH WIND       PRES   REMARKS
BEMIDJI        CLOUDY    46  46  97 N7        30.09R
HALLOCK        CLOUDY    41  39  93 N5        30.14R
ROSEAU         MOCLDY    46  43  87 N6        30.12R
WARROAD        CLOUDY    48  45  87 N7        30.12R
THIEF RVR FALL   N/A     41  39  93 CALM      30.12R
CROOKSTON      CLOUDY    43  41  93 N7        30.13R
FOSSTON        CLOUDY    43  41  93 N5        30.10R
DETROIT LAKES  CLOUDY    46  43  87 N3        30.09R
MOORHEAD       CLOUDY    37  37 100 N7        30.11R
PARK RAPIDS    CLOUDY    48  44  86 N6        30.07R
MAHNOMEN       CLOUDY    41  40  97 N5        30.10R
$$
MNZ006-009>011-018-025>026-281000-
   North Central Minnesota

CITY           SKY/WX    TMP DP  RH WIND       PRES   REMARKS
BAUDETTE       PTCLDY    47  45  93 N5        30.10R
FLAG ISLAND    CLOUDY    50  46  87 NW8       30.11R
INTL FALLS     PTCLDY    50  47  89 N7        30.07R
WASKISH        PTCLDY    45  45 100 N3        30.09R
BIG FORK       CLOUDY    48  46  93 N6        30.07R
LONGVILLE      CLOUDY    48  46  93 NE5       30.04R
GRAND RAPIDS   CLOUDY    49  47  93 N12       30.06R
COOK           PTCLDY    45  45 100 CALM      30.04R
WALKER         FAIR      46  44  95 N3        30.06R
$$
MNZ012-019>021-037-281000-
   Northeast Minnesota

CITY           SKY/WX    TMP DP  RH WIND       PRES   REMARKS
DULUTH         PTCLDY    50  48  93 N10       29.97R
ELY            CLOUDY    50  48  93 CALM      30.01R
HIBBING        PTCLDY    47  46  97 N7        30.02R
EVELETH        CLOUDY    53  48  84 N6        30.01R
DULUTH HARBOR  MOCLDY    54  50  87 N18       29.97R
TWO HARBORS    MOCLDY    54  48  82 N7        29.95R
SILVER BAY     CLOUDY    52  48  87 N6        29.96R
GRAND MARAIS     N/A     55  48  77 N8G21     29.95R
G MARAIS ARPRT CLOUDY    48  43  81 N13G18    29.98R
$$
MNZ029>031-032-039>041-046>048-054>057-064-281000-
   West Central Minnesota

CITY           SKY/WX    TMP DP  RH WIND       PRES   REMARKS
FERGUS FALLS   CLOUDY    41  41 100 N6        30.10R
MORRIS         CLOUDY    43  39  87 N7        30.06R
ALEXANDRIA     CLOUDY    46  44  93 NE9       30.06R
ELBOW LAKE     CLOUDY    43  42  95 NW5       30.07R
WADENA         CLOUDY    45  43  93 N9        30.06R
GLENWOOD         N/A     46  45  93 N8        30.05R
BENSON         CLOUDY    43  39  87 NE3       30.06R
ORTONVILLE     PTCLDY    43  39  87 CALM      30.07R
MADISON        CLEAR     46  45  93 N6        30.06R
WILLMAR        CLOUDY    48  45  87 N8        30.05R
$$
MNZ033>034-036-042>043-049>051-058-059-281000-
   Central Minnesota

CITY           SKY/WX    TMP DP  RH WIND       PRES   REMARKS
ST CLOUD       CLOUDY    48  46  93 N7        30.01R
SAUK CENTRE    CLOUDY    47  44  91 N9        30.05R
PAYNESVILLE    CLOUDY    47  48 100 N7G18     30.04R
AITKIN         MOCLDY    50  45  81 N7        30.01R
PINE RIVER     CLOUDY    50  46  87 N9        30.07R
BRAINERD       CLOUDY    49  47  93 N9        30.04R
STAPLES        CLOUDY    46  45  93 N3        30.05R
LONG PRAIRIE   CLOUDY    46  43  87 N9        30.05R
LITTLE FALLS   CLOUDY    48  45  87 N5        30.04R
LITCHFIELD     CLOUDY    50  46  87 N7        30.02R
BUFFALO        CLEAR     47  44  88 NW5       30.01R
MAPLE LAKE     CLEAR     47  46  95 NW6       30.01R
HUTCHINSON     CLOUDY    50  46  87 N8        30.02R
$$
MNZ037-044-045-052-053-281000-
   East Central Minnesota

CITY           SKY/WX    TMP DP  RH WIND       PRES   REMARKS
PRINCETON        N/A     46  45  93 NW6       30.00R
MORA           CLOUDY    48  45  87 NW7       30.01R
CAMBRIDGE      CLEAR     52  45  76 N8        29.97R
MOOSE LAKE     CLOUDY    50  46  87 N5        29.97R
HINCKLEY       CLOUDY    50  48  93 N7        29.98R
CLOQUET        MOCLDY    46  45  93 N9        29.98R
MCGREGOR       CLOUDY    50  46  87 NW8       30.02R
$$
MNZ071>073-080-081-089-090-097-098-281000-
   Southwest Minnesota

CITY           SKY/WX    TMP DP  RH WIND       PRES   REMARKS
MONTEVIDEO     CLEAR     43  39  87 N7        30.07R
GRANITE FALLS  MOCLDY    46  43  91 N3        30.06R
CANBY          CLOUDY    46  42  86 N5        30.07R
MARSHALL       CLEAR     43  41  93 N3        30.05R
REDWOOD FALLS  CLOUDY    48  42  80 N9        30.03R
OLIVIA         CLOUDY    46  43  87 N7        30.03R
PIPESTONE      MOCLDY    50  43  76 NE7       30.03R
WINDOM         CLOUDY    46  43  87 N8        30.02R
WORTHINGTON    PTCLDY    46  42  86 N6        30.03R
JACKSON        MOCLDY    45  41  87 N5        30.01R
TRACY          PTCLDY    44  42  93 N5        30.04R
SLAYTON        CLEAR     45  39  81 N9        30.04R
$$
MNZ065>067-074>077-082>085-091>093-281000-
   South Central Minnesota

CITY           SKY/WX    TMP DP  RH WIND       PRES   REMARKS
MANKATO        CLOUDY    49  45  86 N13       29.99R
NEW ULM        CLOUDY    48  45  87 N7        30.00R
ST JAMES       CLOUDY    48  45  87 NW9       30.02R
FAIRMONT       CLOUDY    49  43  80 N10G18    30.00R
GLENCOE        CLOUDY    50  48  90 N8        29.99R
FARIBAULT      CLOUDY    48  46  93 NW9       29.96S
OWATONNA       CLOUDY    50  45  81 N10       29.95R
WASECA         CLOUDY    50  45  81 N8        29.98R
ALBERT LEA     CLOUDY    50  45  81 N8        29.95R
$$
MNZ078>079-086>088-094>096-281000-
   Southeast Minnesota

CITY           SKY/WX    TMP DP  RH WIND       PRES   REMARKS
ROCHESTER      CLOUDY    49  46  90 N13       29.92R
RED WING       CLOUDY    52  46  82 NW5       29.93R
DODGE CENTER   CLOUDY    48  45  87 N10       29.93S
WINONA         CLOUDY    50  46  87 NW13      29.91R
AUSTIN         CLOUDY    48  45  87 N9        29.94R
PRESTON        CLOUDY    47  44  91 N8        29.91R FOG
$$
ABBREVIATIONS USED IN REMARKS
   TC - TEMPERATURES IN CELSIUS
  WCI - WIND CHILL INDEX
   HX - HEAT INDEX
  VSB - VISIBILITY
$$



USA.gov is the U.S. government's official web portal to all federal, state and local government web resources and services.